This demonstration page uses our WeatherBlox Daily Observations layout. Learn more.

Left ArrowRight Arrow

38.83388, -104.82136

Hourly Observations for December 7, 2022

Temp ( °F °C ) Dew Point ( °F °C ) Humidity (%) Winds ( mph kmh ) Pressure ( in mb ) Visibility ( mi km ) Precip ( " mm )
12:55 am 00:55 Clear 34 0.9 18 -7.9 52 52 NNW 5 7 29.08 985 10 16 0.00 0.00
1:55 am 01:55 Clear 35 1.5 16 -8.9 46 46 WNW 5 7 29.06 984 10 16 0.00 0.00
2:55 am 02:55 Clear 35 1.5 16 -8.9 46 46 Calm 29.10 986 10 16 0.00 0.00
3:55 am 03:55 Clear 34 1.2 17 -8.6 48 48 NW 3 6 29.10 986 10 16 0.00 0.00
4:55 am 04:55 Clear 34 1.3 17 -8.5 48 48 NW 6 9 29.16 988 10 16 0.00 0.00
5:55 am 05:55 Clear 35 1.5 18 -7.8 50 50 NW 3 6 29.13 987 10 16 0.00 0.00
6:55 am 06:55 Clear 34 0.9 18 -7.9 52 52 Calm 29.14 987 10 16 0.00 0.00
7:55 am 07:55 Sunny 38 3.1 15 -9.2 40 40 Calm 29.25 991 10 16 0.00 0.00
8:55 am 08:55 Sunny 40 4.2 16 -8.9 38 38 SSE 7 11 29.34 994 10 16 0.00 0.00
9:55 am 09:55 Sunny 42 5.4 16 -8.9 35 35 ESE 8 13 29.42 996 10 16 0.00 0.00
10:55 am 10:55 Sunny 42 5.7 17 -8.2 36 36 ESE 9 15 29.45 997 10 16 0.00 0.00
11:55 am 11:55 Sunny 44 6.6 19 -7.4 36 36 SE 9 15 29.45 997 10 16 0.00 0.00
12:55 pm 12:55 Sunny 43 6.3 19 -7.3 37 37 SSE 13 20 29.47 998 10 16 0.00 0.00
1:55 pm 13:55 Sunny 44 6.6 21 -6 40 40 SSE 14 22 29.46 998 10 16 0.00 0.00
2:55 pm 14:55 Mostly Sunny 43 6.1 21 -5.9 42 42 SSE 9 15 29.34 993 10 16 0.00 0.00
3:55 pm 15:55 Partly Cloudy 42 5.3 21 -6 44 44 S 7 11 29.29 992 10 16 0.00 0.00
4:55 pm 16:55 Partly Cloudy 40 4.5 22 -5.8 47 47 S 10 17 29.24 990 10 16 0.00 0.00
5:55 pm 17:55 Mostly Cloudy 40 4.2 21 -6.1 47 47 S 12 19 29.26 991 10 16 0.00 0.00
6:55 pm 18:55 Partly Cloudy 38 3.4 20 -6.6 48 48 SSW 14 22 29.25 990 10 16 0.00 0.00
7:55 pm 19:55 Partly Cloudy 38 3.1 20 -6.9 48 48 S 8 13 29.23 990 10 16 0.00 0.00
8:55 pm 20:55 Mostly Cloudy 35 1.5 20 -6.8 54 54 SSE 9 15 29.18 988 10 16 0.00 0.00
9:55 pm 21:55 Mostly Clear 32 -0.1 20 -6.5 62 62 S 10 17 29.11 986 10 16 0.00 0.00
10:55 pm 22:55 Clear 31 -0.5 21 -5.9 67 67 S 9 15 29.08 985 10 16 0.00 0.00
11:55 pm 23:55 Clear 29 -1.5 21 -6.1 71 71 S 8 13 29.04 983 10 16 0.00 0.00

Powered by AerisWeather